Home   Weather   Chengdu   Past weeks

Flag for China Past Weather in Chengdu, Sichuan, China — Yesterday and Last 2 Weeks

Now
70 °F

Fog.


Feels Like: 70 °F
Forecast: 68 / 80 °F
Wind: 3 mph from South

Location: Chengdu Airport

Current Time: Sep 27, 2016 at 3:18:06 AM

Latest Report: Sep 27, 2016 at 2:00 AM


Visibility: 3 mi

Pressure: 29.95 "Hg

Humidity: 94%

Dew Point: 68 °F

Location of ChengduLocation

Past Weather in Chengdu — Graph

°F

Chengdu Temperature Yesterday

Maximum temperature yesterday: 75 °F (at 2:00 PM)
Minimum temperature yesterday: 68 °F (at 5:00 AM)
Average temperature yesterday: 72 °F

High & Low Weather Summary for the Past Weeks

 TemperatureHumidityPressure
High84 °F (Sep 12, 1:00 PM)100% (Sep 12, 6:00 AM)30.21 "Hg (Sep 12, 6:00 AM)
Low64 °F (Sep 21, 7:00 AM)51% (Sep 12, 3:00 PM)29.80 "Hg (Sep 25, 3:00 PM)
Average71 °F91%29.99 "Hg
* Reported Sep 12 2:00 AM — Sep 27 2:00 AM, Chengdu, Weather by CustomWeather, © 2016

Note: Actual official high and low records may vary slightly from our data, if they occured in-between our weather recording intervals... More about our weather records

Advertising

Chengdu Weather History for the Previous 24 Hours

Scroll right to see more
 ConditionsComfort  
Time TempWeatherWind HumidityBarometerVisibility
2:00 AM
Tue, Sep 27
70 °FFog.3 mph94%29.95 "Hg3 mi
1:00 AM70 °FClear.1 mph94%29.95 "Hg4 mi
12:00 AM70 °FClear.No wind94%29.98 "Hg4 mi
11:00 PM
Mon, Sep 26
70 °FClear.1 mph94%29.98 "Hg4 mi
10:00 PM70 °FPassing clouds.1 mph94%29.98 "Hg4 mi
9:00 PM72 °FPassing clouds.3 mph88%29.95 "Hg4 mi
8:00 PM72 °FPassing clouds.3 mph94%29.95 "Hg4 mi
7:00 PM73 °FFog.1 mph83%29.92 "Hg2 mi
6:00 PM73 °FFog.1 mph83%29.92 "Hg2 mi
5:00 PM75 °FFog.No wind78%29.89 "Hg3 mi
4:00 PM75 °FFog.1 mph78%29.89 "Hg2 mi
3:00 PM75 °FFog.No wind78%29.89 "Hg3 mi
2:00 PM75 °FFog.3 mph78%29.89 "Hg2 mi
1:00 PM73 °FFog.3 mph83%29.92 "Hg2 mi
12:00 PM73 °FFog.3 mph83%29.92 "Hg3 mi
11:00 AM73 °FFog.1 mph83%29.92 "Hg2 mi
10:00 AM72 °FFog.1 mph88%29.92 "Hg2 mi
9:00 AM70 °FFog.No wind100%29.89 "Hg2 mi
8:00 AM70 °FFog.No wind94%29.86 "Hg1 mi
7:00 AM70 °FFog.No wind94%29.86 "Hg2 mi
6:00 AM70 °FFog.No wind94%29.83 "Hg2 mi
5:00 AM68 °FFog.1 mph100%29.83 "Hg3 mi
4:00 AM70 °FFog.No wind94%29.83 "Hg3 mi
3:00 AM70 °FFog.1 mph94%29.83 "Hg3 mi
Weather by CustomWeather, © 2016

See weather overviewHow to use our weather pages